,,PA_Meas_PMT16A,,PR_Meas_QMR101_102,,RH_Meas_QMH101,,SR_Meas_QMS101,,TA_Meas_QMH101,,GenWind,,GenWind,
time,status,PA,status,PR,status,RH,status,SR,status,TA,status,DirAvg,status,SpdAvg,
2010-07-04, 00:00:05,VALID,919.142,VALID,0,VALID,82.2033,VALID,0,VALID,19.5843,VALID,109,VALID,1.36094,
2010-07-04, 00:01:05,VALID,919.102,VALID,0,VALID,82.0051,VALID,0,VALID,19.6038,VALID,129,VALID,0.614062,
2010-07-04, 00:02:05,VALID,919.11,VALID,0,VALID,82.0661,VALID,0.107441,VALID,19.6038,VALID,129,VALID,0.897656,
2010-07-04, 00:03:05,VALID,919.113,VALID,0,VALID,82.1499,VALID,0,VALID,19.5843,VALID,129,VALID,0.461328,
2010-07-04, 00:04:05,VALID,919.093,VALID,0,VALID,81.9365,VALID,0.107441,VALID,19.6038,VALID,123,VALID,0.913281,
2010-07-04, 00:05:05,VALID,919.101,VALID,0,VALID,82.4777,VALID,0,VALID,19.6443,VALID,123,VALID,0.283203,
2010-07-04, 00:06:05,VALID,919.114,VALID,0,VALID,82.6302,VALID,0,VALID,19.6443,VALID,123,VALID,0.521094,
2010-07-04, 00:07:05,VALID,919.11,VALID,0,VALID,82.9733,VALID,0,VALID,19.6428,VALID,123,VALID,0.00585938,
2010-07-04, 00:08:05,VALID,919.115,VALID,0,VALID,83.3697,VALID,0,VALID,19.6443,VALID,123,VALID,0.189844,
2010-07-04, 00:09:05,VALID,919.085,VALID,0,VALID,83.1791,VALID,0,VALID,19.6233,VALID,123,VALID,0.364453,
2010-07-04, 00:10:05,VALID,919.108,VALID,0,VALID,83.2934,VALID,0,VALID,19.5843,VALID,123,VALID,0.245312,
2010-07-04, 00:11:05,VALID,919.055,VALID,0,VALID,82.8132,VALID,0,VALID,19.5663,VALID,123,VALID,0.165625,
2010-07-04, 00:12:05,VALID,919.049,VALID,0,VALID,84.2921,VALID,0,VALID,19.5258,VALID,123,VALID,0.143359,
2010-07-04, 00:13:05,VALID,919.054,VALID,0,VALID,83.606,VALID,0,VALID,19.5078,VALID,123,VALID,0,
2010-07-04, 00:14:05,VALID,919.031,VALID,0,VALID,83.5145,VALID,0,VALID,19.5258,VALID,123,VALID,0,
2010-07-04, 00:15:05,VALID,918.964,VALID,0,VALID,86.1446,VALID,0,VALID,19.5063,VALID,123,VALID,0,
2010-07-04, 00:16:05,VALID,918.93,VALID,0,VALID,85.672,VALID,0,VALID,19.4868,VALID,123,VALID,0.05625,
2010-07-04, 00:17:05,VALID,918.915,VALID,0,VALID,85.7863,VALID,0.107441,VALID,19.4673,VALID,123,VALID,0,
2010-07-04, 00:18:05,VALID,918.895,VALID,0,VALID,85.7329,VALID,0,VALID,19.3893,VALID,124,VALID,0.341797,
2010-07-04, 00:19:05,VALID,918.855,VALID,0,VALID,85.3213,VALID,0,VALID,19.3113,VALID,123,VALID,0.329688,
2010-07-04, 00:20:05,VALID,918.848,VALID,0,VALID,86.3809,VALID,0,VALID,19.2738,VALID,123,VALID,0.358594,
2010-07-04, 00:21:05,VALID,918.849,VALID,0,VALID,85.245,VALID,0,VALID,19.2334,VALID,123,VALID,0.532812,
2010-07-04, 00:22:05,VALID,918.812,VALID,0,VALID,85.8168,VALID,0,VALID,19.2139,VALID,123,VALID,0.816406,
2010-07-04, 00:23:04,VALID,918.806,VALID,0,VALID,85.5347,VALID,0,VALID,19.1958,VALID,123,VALID,1.08711,
2010-07-04, 00:24:04,VALID,918.84,VALID,0,VALID,85.7406,VALID,0,VALID,19.1554,VALID,123,VALID,1.16094,
2010-07-04, 00:25:04,VALID,918.835,VALID,0,VALID,84.2235,VALID,0,VALID,19.1359,VALID,123,VALID,1.12656,
2010-07-04, 00:26:04,VALID,918.815,VALID,0,VALID,84.5437,VALID,0,VALID,19.1554,VALID,123,VALID,1.03633,
2010-07-04, 00:27:04,VALID,918.839,VALID,0,VALID,83.8652,VALID,0,VALID,19.1749,VALID,124,VALID,1.0293,
2010-07-04, 00:28:04,VALID,918.836,VALID,0,VALID,84.0253,VALID,0,VALID,19.2153,VALID,123,VALID,0.982031,
2010-07-04, 00:29:04,VALID,918.81,VALID,0,VALID,84.841,VALID,0,VALID,19.1944,VALID,123,VALID,0.95,
2010-07-04, 00:30:04,VALID,918.776,VALID,0,VALID,85.2679,VALID,0,VALID,19.1749,VALID,123,VALID,0.610937,
2010-07-04, 00:31:04,VALID,918.747,VALID,0,VALID,87.2576,VALID,0,VALID,19.1359,VALID,123,VALID,0.891406,
2010-07-04, 00:32:04,VALID,918.751,VALID,0,VALID,88.9119,VALID,0,VALID,19.1178,VALID,123,VALID,1.25,
2010-07-04, 00:33:04,VALID,918.729,VALID,0,VALID,90.0325,VALID,0,VALID,19.0008,VALID,123,VALID,0.990625,
2010-07-04, 00:34:04,VALID,918.721,VALID,0,VALID,90.833,VALID,0,VALID,18.9034,VALID,121,VALID,1.07383,
2010-07-04, 00:35:04,VALID,918.718,VALID,0,VALID,91.3514,VALID,0,VALID,18.8449,VALID,105,VALID,0.867969,
2010-07-04, 00:36:04,VALID,918.731,VALID,0,VALID,91.6868,VALID,0,VALID,18.746,VALID,105,VALID,0.678516,
2010-07-04, 00:37:04,VALID,918.721,VALID,0,VALID,91.7707,VALID,0,VALID,18.6875,VALID,139,VALID,1.16523,
2010-07-04, 00:38:04,VALID,918.727,VALID,0,VALID,91.8469,VALID,0,VALID,18.6889,VALID,114,VALID,1.30781,
2010-07-04, 00:39:04,VALID,918.755,VALID,0,VALID,91.5801,VALID,0,VALID,18.668,VALID,125,VALID,0.788281,
2010-07-04, 00:40:04,VALID,918.71,VALID,0,VALID,90.1698,VALID,0,VALID,18.7474,VALID,118,VALID,1.72656,
2010-07-04, 00:41:04,VALID,918.729,VALID,0,VALID,89.1787,VALID,0,VALID,18.824,VALID,123,VALID,1.12773,
2010-07-04, 00:42:04,VALID,918.701,VALID,0,VALID,88.4392,VALID,0,VALID,18.9424,VALID,147,VALID,0.800391,
2010-07-04, 00:43:04,VALID,918.649,VALID,0,VALID,87.128,VALID,0,VALID,18.9994,VALID,144,VALID,1.18008,
2010-07-04, 00:44:04,VALID,918.703,VALID,0,VALID,86.3581,VALID,0,VALID,19.0774,VALID,132,VALID,1.4,
2010-07-04, 00:45:04,VALID,918.652,VALID,0,VALID,85.5652,VALID,0,VALID,19.1763,VALID,152,VALID,1.83477,
2010-07-04, 00:46:04,VALID,918.661,VALID,0,VALID,84.8105,VALID,0,VALID,19.2153,VALID,138,VALID,1.38398,
2010-07-04, 00:47:04,VALID,918.614,VALID,0,VALID,84.658,VALID,0,VALID,19.2738,VALID,170,VALID,1.33555,
2010-07-04, 00:48:04,VALID,918.574,VALID,0,VALID,84.8258,VALID,0,VALID,19.2933,VALID,141,VALID,0.839063,
2010-07-04, 00:49:04,VALID,918.609,VALID,0,VALID,85.0011,VALID,0,VALID,19.2918,VALID,162,VALID,0.842188,
2010-07-04, 00:50:04,VALID,918.566,VALID,0,VALID,84.7571,VALID,0,VALID,19.3518,VALID,161,VALID,0.427734,
2010-07-04, 00:51:04,VALID,918.563,VALID,0,VALID,84.6199,VALID,0,VALID,19.3518,VALID,161,VALID,0.451953,
2010-07-04, 00:52:04,VALID,918.546,VALID,0,VALID,84.7724,VALID,0,VALID,19.3308,VALID,161,VALID,0.696094,
2010-07-04, 00:53:04,VALID,918.555,VALID,0,VALID,84.8181,VALID,0,VALID,19.2918,VALID,79,VALID,1.01719,
2010-07-04, 00:54:04,VALID,918.539,VALID,0,VALID,84.6352,VALID,0,VALID,19.2528,VALID,95,VALID,1.05703,
2010-07-04, 00:55:04,VALID,918.551,VALID,0,VALID,84.2921,VALID,0,VALID,19.2348,VALID,115,VALID,0.824609,
2010-07-04, 00:56:04,VALID,918.559,VALID,0,VALID,84.8105,VALID,0,VALID,19.2153,VALID,115,VALID,0.396875,
2010-07-04, 00:57:04,VALID,918.549,VALID,0,VALID,84.437,VALID,0,VALID,19.1763,VALID,115,VALID,0.523047,
2010-07-04, 00:58:04,VALID,918.58,VALID,0,VALID,83.4612,VALID,0,VALID,19.1568,VALID,115,VALID,0.489453,
2010-07-04, 00:59:04,VALID,918.581,VALID,0,VALID,83.789,VALID,0,VALID,19.1568,VALID,115,VALID,0.195703,
2010-07-04, 01:00:04,VALID,918.596,VALID,0,VALID,82.9428,VALID,0,VALID,19.1763,VALID,115,VALID,0.287891,
2010-07-04, 01:01:04,VALID,918.605,VALID,0,VALID,82.9351,VALID,0,VALID,19.2153,VALID,115,VALID,0.569922,
2010-07-04, 01:02:04,VALID,918.59,VALID,0,VALID,83.2934,VALID,0,VALID,19.2348,VALID,115,VALID,0.721875,
2010-07-04, 01:03:04,VALID,918.576,VALID,0,VALID,82.4549,VALID,0,VALID,19.2738,VALID,115,VALID,0.610937,
2010-07-04, 01:04:04,VALID,918.596,VALID,0,VALID,82.2795,VALID,0,VALID,19.2933,VALID,151,VALID,1.15156,
2010-07-04, 01:05:04,VALID,918.584,VALID,0,VALID,82.4396,VALID,0,VALID,19.3113,VALID,152,VALID,0.661328,
2010-07-04, 01:06:04,VALID,918.576,VALID,0,VALID,81.1284,VALID,0,VALID,19.3893,VALID,152,VALID,1.04648,
2010-07-04, 01:07:04,VALID,918.569,VALID,0,VALID,81.3571,VALID,0,VALID,19.4283,VALID,152,VALID,1.1543,
2010-07-04, 01:08:04,VALID,918.584,VALID,0,VALID,81.258,VALID,0,VALID,19.4883,VALID,152,VALID,0.964844,
2010-07-04, 01:09:04,VALID,918.602,VALID,0,VALID,81.5324,VALID,0,VALID,19.5078,VALID,152,VALID,0.960547,
2010-07-04, 01:10:04,VALID,918.593,VALID,0,VALID,81.2656,VALID,0.107441,VALID,19.5258,VALID,118,VALID,1.35742,
2010-07-04, 01:11:04,VALID,918.568,VALID,0,VALID,80.61,VALID,0,VALID,19.5468,VALID,134,VALID,1.17109,
2010-07-04, 01:12:04,VALID,918.588,VALID,0,VALID,81.2351,VALID,0,VALID,19.5468,VALID,154,VALID,0.901563,
2010-07-04, 01:13:04,VALID,918.559,VALID,0,VALID,81.3495,VALID,0,VALID,19.5648,VALID,154,VALID,0.814453,
2010-07-04, 01:14:04,VALID,918.563,VALID,0,VALID,80.8692,VALID,0,VALID,19.5858,VALID,159,VALID,1.0793,
2010-07-04, 01:15:04,VALID,918.548,VALID,0,VALID,80.9226,VALID,0,VALID,19.6248,VALID,158,VALID,0.810156,
2010-07-04, 01:16:04,VALID,918.535,VALID,0,VALID,80.7777,VALID,0,VALID,19.6638,VALID,158,VALID,0.657812,
2010-07-04, 01:17:04,VALID,918.506,VALID,0,VALID,80.6634,VALID,0,VALID,19.6833,VALID,158,VALID,1.01875,
2010-07-04, 01:18:04,VALID,918.491,VALID,0,VALID,79.8172,VALID,0,VALID,19.6833,VALID,163,VALID,1.42344,
2010-07-04, 01:19:04,VALID,918.488,VALID,0,VALID,80.3356,VALID,0,VALID,19.7028,VALID,149,VALID,0.793359,
2010-07-04, 01:20:04,VALID,918.46,VALID,0,VALID,80.5414,VALID,0,VALID,19.7223,VALID,148,VALID,0.849609,
2010-07-04, 01:21:04,VALID,918.447,VALID,0,VALID,80.0764,VALID,0,VALID,19.7223,VALID,129,VALID,1.19492,
2010-07-04, 01:22:04,VALID,918.416,VALID,0,VALID,79.6876,VALID,0.107441,VALID,19.7013,VALID,128,VALID,0.580859,
2010-07-04, 01:23:04,VALID,918.401,VALID,0,VALID,79.6571,VALID,0,VALID,19.7223,VALID,164,VALID,0.929688,
2010-07-04, 01:24:04,VALID,918.386,VALID,0,VALID,79.8629,VALID,0,VALID,19.7613,VALID,153,VALID,1.02852,
2010-07-04, 01:25:04,VALID,918.391,VALID,0,VALID,78.9176,VALID,0,VALID,19.8003,VALID,179,VALID,1.65508,
2010-07-04, 01:26:04,VALID,918.364,VALID,0,VALID,78.9328,VALID,0,VALID,19.8393,VALID,179,VALID,1.13398,
2010-07-04, 01:27:04,VALID,918.369,VALID,0,VALID,80.1678,VALID,0,VALID,19.8393,VALID,179,VALID,0.636719,
2010-07-04, 01:28:04,VALID,918.357,VALID,0,VALID,80.0382,VALID,0,VALID,19.8003,VALID,179,VALID,0.813281,
2010-07-04, 01:29:04,VALID,918.369,VALID,0,VALID,80.0078,VALID,0,VALID,19.8018,VALID,179,VALID,0.917188,
2010-07-04, 01:30:04,VALID,918.364,VALID,0,VALID,80.7091,VALID,0,VALID,19.7793,VALID,179,VALID,1.03828,
2010-07-04, 01:31:04,VALID,918.352,VALID,0,VALID,80.7548,VALID,0,VALID,19.7808,VALID,179,VALID,0.422656,
2010-07-04, 01:32:04,VALID,918.385,VALID,0,VALID,81.3495,VALID,0,VALID,19.7613,VALID,179,VALID,0.722656,
2010-07-04, 01:33:04,VALID,918.363,VALID,0,VALID,80.61,VALID,0,VALID,19.7403,VALID,179,VALID,1.14063,
2010-07-04, 01:34:04,VALID,918.385,VALID,0,VALID,81.6163,VALID,0,VALID,19.7613,VALID,179,VALID,0.614844,
2010-07-04, 01:35:04,VALID,918.395,VALID,0,VALID,81.2046,VALID,0,VALID,19.7028,VALID,179,VALID,1.12461,
2010-07-04, 01:36:04,VALID,918.361,VALID,0,VALID,81.4257,VALID,0,VALID,19.6833,VALID,179,VALID,0.959766,
2010-07-04, 01:37:04,VALID,918.345,VALID,0,VALID,82.3481,VALID,0,VALID,19.6638,VALID,179,VALID,0.636719,
2010-07-04, 01:38:04,VALID,918.354,VALID,0,VALID,82.4777,VALID,0,VALID,19.6443,VALID,179,VALID,0.502734,
2010-07-04, 01:39:04,VALID,918.323,VALID,0,VALID,82.836,VALID,0,VALID,19.6248,VALID,148,VALID,0.419922,
2010-07-04, 01:40:04,VALID,918.302,VALID,0,VALID,83.0876,VALID,0,VALID,19.6248,VALID,148,VALID,0.377734,
2010-07-04, 01:41:04,VALID,918.3,VALID,0,VALID,82.7827,VALID,0,VALID,19.6053,VALID,148,VALID,0.851563,
2010-07-04, 01:42:04,VALID,918.255,VALID,0,VALID,83.0114,VALID,0,VALID,19.5648,VALID,148,VALID,0.794922,
2010-07-04, 01:43:04,VALID,918.216,VALID,0,VALID,82.8513,VALID,0,VALID,19.5858,VALID,148,VALID,0.690234,
2010-07-04, 01:44:04,VALID,918.188,VALID,0,VALID,82.9885,VALID,0,VALID,19.6053,VALID,149,VALID,0.524219,
2010-07-04, 01:45:04,VALID,918.176,VALID,0,VALID,83.5984,VALID,0,VALID,19.6053,VALID,148,VALID,0.442969,
2010-07-04, 01:46:04,VALID,918.154,VALID,0,VALID,83.606,VALID,0,VALID,19.5648,VALID,148,VALID,0.653906,
2010-07-04, 01:47:04,VALID,918.194,VALID,0,VALID,83.8728,VALID,0,VALID,19.5858,VALID,148,VALID,0.388281,
2010-07-04, 01:48:04,VALID,918.169,VALID,0,VALID,82.9504,VALID,0,VALID,19.5468,VALID,148,VALID,1.05547,
2010-07-04, 01:49:04,VALID,918.122,VALID,0,VALID,83.0114,VALID,0,VALID,19.5468,VALID,148,VALID,0.755859,
2010-07-04, 01:50:04,VALID,918.12,VALID,0,VALID,82.8818,VALID,0,VALID,19.5453,VALID,148,VALID,0.853125,
2010-07-04, 01:51:04,VALID,918.104,VALID,0,VALID,83.5526,VALID,0,VALID,19.5468,VALID,148,VALID,0.969141,
2010-07-04, 01:52:04,VALID,918.068,VALID,0,VALID,84.2235,VALID,0,VALID,19.4883,VALID,100,VALID,1.1,
2010-07-04, 01:53:04,VALID,918.049,VALID,0,VALID,84.0405,VALID,0,VALID,19.4283,VALID,100,VALID,0.960156,
2010-07-04, 01:54:04,VALID,918.044,VALID,0,VALID,84.0634,VALID,0,VALID,19.4298,VALID,100,VALID,0.893359,
2010-07-04, 01:55:04,VALID,918.031,VALID,0,VALID,84.5666,VALID,0,VALID,19.3503,VALID,100,VALID,0.671484,
2010-07-04, 01:56:04,VALID,917.992,VALID,0,VALID,83.8957,VALID,0,VALID,19.3128,VALID,100,VALID,0.827734,
2010-07-04, 01:57:04,VALID,917.972,VALID,0,VALID,83.6136,VALID,0,VALID,19.3323,VALID,103,VALID,1.03242,
2010-07-04, 01:58:04,VALID,917.956,VALID,0,VALID,84.1549,VALID,0,VALID,19.3503,VALID,145,VALID,0.457812,
2010-07-04, 01:59:04,VALID,917.957,VALID,0,VALID,82.3939,VALID,0,VALID,19.3908,VALID,145,VALID,0.782422,
2010-07-04, 02:00:04,VALID,917.949,VALID,0,VALID,83.0342,VALID,0,VALID,19.4688,VALID,145,VALID,0.588281,
2010-07-04, 02:01:04,VALID,917.913,VALID,0,VALID,81.8374,VALID,0,VALID,19.5078,VALID,145,VALID,0.797656,
2010-07-04, 02:02:04,VALID,917.915,VALID,0,VALID,82.0889,VALID,0,VALID,19.5663,VALID,145,VALID,0.550391,
2010-07-04, 02:03:04,VALID,917.903,VALID,0,VALID,81.7688,VALID,0,VALID,19.6053,VALID,145,VALID,0.810938,
2010-07-04, 02:04:04,VALID,917.895,VALID,0,VALID,81.7916,VALID,0,VALID,19.6053,VALID,145,VALID,0.489844,
2010-07-04, 02:05:04,VALID,917.869,VALID,0,VALID,82.1804,VALID,0,VALID,19.5648,VALID,145,VALID,0.360547,
2010-07-04, 02:06:04,VALID,917.892,VALID,0,VALID,81.906,VALID,0,VALID,19.5858,VALID,145,VALID,0.540234,
2010-07-04, 02:07:04,VALID,917.882,VALID,0,VALID,81.8907,VALID,0,VALID,19.6053,VALID,145,VALID,0.139844,
2010-07-04, 02:08:04,VALID,917.867,VALID,0,VALID,81.4028,VALID,0,VALID,19.5858,VALID,145,VALID,0.585938,
2010-07-04, 02:09:04,VALID,917.892,VALID,0,VALID,82.3786,VALID,0,VALID,19.6053,VALID,145,VALID,0.559766,
2010-07-04, 02:10:04,VALID,917.838,VALID,0,VALID,82.31,VALID,0,VALID,19.5858,VALID,171,VALID,0.964453,
2010-07-04, 02:11:04,VALID,917.85,VALID,0,VALID,83.3011,VALID,0,VALID,19.5453,VALID,130,VALID,0.388281,
2010-07-04, 02:12:04,VALID,917.819,VALID,0,VALID,82.6759,VALID,0,VALID,19.5063,VALID,130,VALID,0.568359,
2010-07-04, 02:13:04,VALID,917.806,VALID,0,VALID,82.7293,VALID,0,VALID,19.5078,VALID,130,VALID,0.626562,
2010-07-04, 02:14:04,VALID,917.796,VALID,0,VALID,82.4854,VALID,0,VALID,19.5468,VALID,202,VALID,0.801953,
2010-07-04, 02:15:04,VALID,917.784,VALID,0,VALID,81.967,VALID,0,VALID,19.5663,VALID,170,VALID,0.357422,
2010-07-04, 02:16:04,VALID,917.811,VALID,0,VALID,81.4028,VALID,0,VALID,19.5858,VALID,170,VALID,0.641797,
2010-07-04, 02:17:04,VALID,917.795,VALID,0,VALID,81.2275,VALID,0,VALID,19.6248,VALID,170,VALID,0.885938,
2010-07-04, 02:18:04,VALID,917.762,VALID,0,VALID,80.084,VALID,0,VALID,19.6638,VALID,170,VALID,0.705469,
2010-07-04, 02:19:04,VALID,917.772,VALID,0,VALID,80.7548,VALID,0,VALID,19.7028,VALID,170,VALID,0.889453,
2010-07-04, 02:20:04,VALID,917.771,VALID,0,VALID,80.9607,VALID,0,VALID,19.7613,VALID,170,VALID,0.491797,
2010-07-04, 02:21:04,VALID,917.753,VALID,0,VALID,79.9544,VALID,0,VALID,19.7613,VALID,179,VALID,0.59375,
2010-07-04, 02:22:04,VALID,917.773,VALID,0,VALID,79.8858,VALID,0,VALID,19.7793,VALID,169,VALID,0.744531,
2010-07-04, 02:23:04,VALID,917.776,VALID,0,VALID,79.7714,VALID,0,VALID,19.8198,VALID,169,VALID,0.834375,
2010-07-04, 02:24:04,VALID,917.743,VALID,0,VALID,78.605,VALID,0,VALID,19.8393,VALID,169,VALID,1.04609,
2010-07-04, 02:25:04,VALID,917.754,VALID,0,VALID,78.5745,VALID,0,VALID,19.8783,VALID,169,VALID,1.1418,
2010-07-04, 02:26:04,VALID,917.733,VALID,0,VALID,78.727,VALID,0,VALID,19.9173,VALID,169,VALID,0.615234,
2010-07-04, 02:27:04,VALID,917.744,VALID,0,VALID,79.84,VALID,0,VALID,19.9368,VALID,169,VALID,0.369141,
2010-07-04, 02:28:04,VALID,917.742,VALID,0,VALID,78.5059,VALID,0,VALID,19.9158,VALID,180,VALID,0.9,
2010-07-04, 02:29:04,VALID,917.729,VALID,0,VALID,79.1463,VALID,0,VALID,19.9563,VALID,188,VALID,0.217187,
2010-07-04, 02:30:04,VALID,917.785,VALID,0,VALID,78.1934,VALID,0,VALID,19.9758,VALID,188,VALID,0.544141,
2010-07-04, 02:31:04,VALID,917.785,VALID,0,VALID,78.5136,VALID,0,VALID,19.9563,VALID,188,VALID,0.209766,
2010-07-04, 02:32:04,VALID,917.77,VALID,0,VALID,78.0333,VALID,0,VALID,19.9953,VALID,188,VALID,0.18125,
2010-07-04, 02:33:04,VALID,917.788,VALID,0,VALID,78.1705,VALID,0.107441,VALID,19.9758,VALID,188,VALID,0,
2010-07-04, 02:34:04,VALID,917.764,VALID,0,VALID,80.2669,VALID,0,VALID,19.9953,VALID,188,VALID,0,
2010-07-04, 02:35:04,VALID,917.78,VALID,0,VALID,81.1665,VALID,0,VALID,19.9758,VALID,188,VALID,0,
2010-07-04, 02:36:04,VALID,917.752,VALID,0,VALID,82.5006,VALID,0,VALID,19.9353,VALID,188,VALID,0,
2010-07-04, 02:37:04,VALID,917.774,VALID,0,VALID,81.136,VALID,0,VALID,19.8768,VALID,188,VALID,0,
2010-07-04, 02:38:04,VALID,917.752,VALID,0,VALID,81.7688,VALID,0,VALID,19.8393,VALID,188,VALID,0.207031,
2010-07-04, 02:39:04,VALID,917.73,VALID,0,VALID,82.6073,VALID,0,VALID,19.7598,VALID,188,VALID,0,
2010-07-04, 02:40:04,VALID,917.718,VALID,0,VALID,83.6975,VALID,0,VALID,19.6833,VALID,188,VALID,0,
2010-07-04, 02:41:04,VALID,917.719,VALID,0,VALID,85.2908,VALID,0,VALID,19.6053,VALID,188,VALID,0,
2010-07-04, 02:42:04,VALID,917.721,VALID,0,VALID,85.7329,VALID,0,VALID,19.5663,VALID,188,VALID,0,
2010-07-04, 02:43:04,VALID,917.714,VALID,0,VALID,85.8702,VALID,0,VALID,19.4883,VALID,188,VALID,0,
2010-07-04, 02:44:04,VALID,917.704,VALID,0,VALID,85.832,VALID,0,VALID,19.4103,VALID,188,VALID,0,
2010-07-04, 02:45:04,VALID,917.678,VALID,0,VALID,85.7634,VALID,0,VALID,19.2738,VALID,188,VALID,0.471094,
2010-07-04, 02:46:04,VALID,917.688,VALID,0,VALID,85.7482,VALID,0,VALID,19.1359,VALID,188,VALID,0.502734,
2010-07-04, 02:47:04,VALID,917.68,VALID,0,VALID,84.4446,VALID,0,VALID,19.0398,VALID,188,VALID,0.430859,
2010-07-04, 02:48:04,VALID,917.662,VALID,0,VALID,83.5908,VALID,0,VALID,19.0189,VALID,188,VALID,0.446875,
2010-07-04, 02:49:04,VALID,917.596,VALID,0,VALID,83.545,VALID,0,VALID,19.0983,VALID,188,VALID,0.483203,
2010-07-04, 02:50:04,VALID,917.619,VALID,0,VALID,84.0177,VALID,0,VALID,19.1359,VALID,188,VALID,0.717578,
2010-07-04, 02:51:04,VALID,917.63,VALID,0,VALID,87.1585,VALID,0,VALID,19.1958,VALID,188,VALID,0.360156,
2010-07-04, 02:52:04,VALID,917.639,VALID,0,VALID,88.3173,VALID,0,VALID,19.0983,VALID,188,VALID,0.544531,
2010-07-04, 02:53:04,VALID,917.66,VALID,0,VALID,89.6895,VALID,0,VALID,18.9409,VALID,188,VALID,0.289453,
2010-07-04, 02:54:04,VALID,917.684,VALID,0,VALID,89.1254,VALID,0,VALID,18.824,VALID,188,VALID,0.335156,
2010-07-04, 02:55:04,VALID,917.703,VALID,0,VALID,89.255,VALID,0,VALID,18.7864,VALID,188,VALID,0.269922,
2010-07-04, 02:56:04,VALID,917.725,VALID,0,VALID,88.3173,VALID,0,VALID,18.7669,VALID,188,VALID,0.145313,
2010-07-04, 02:57:04,VALID,917.689,VALID,0,VALID,89.6285,VALID,0,VALID,18.8059,VALID,188,VALID,0.563281,
2010-07-04, 02:58:04,VALID,917.709,VALID,0,VALID,89.9639,VALID,0,VALID,18.7655,VALID,188,VALID,0.520703,
2010-07-04, 02:59:04,VALID,917.715,VALID,0,VALID,89.8267,VALID,0,VALID,18.7474,VALID,188,VALID,0.602734,
2010-07-04, 03:00:04,VALID,917.685,VALID,0,VALID,89.3922,VALID,0,VALID,18.7279,VALID,188,VALID,0.342187,
2010-07-04, 03:01:04,VALID,917.679,VALID,0,VALID,90.0859,VALID,0,VALID,18.7474,VALID,188,VALID,0.107031,
2010-07-04, 03:02:04,VALID,917.685,VALID,0,VALID,90.185,VALID,0,VALID,18.7474,VALID,188,VALID,0,
2010-07-04, 03:03:04,VALID,917.636,VALID,0,VALID,90.8483,VALID,0,VALID,18.7279,VALID,188,VALID,0.432031,
2010-07-04, 03:04:04,VALID,917.657,VALID,0,VALID,90.3832,VALID,0,VALID,18.6889,VALID,188,VALID,0.188281,
2010-07-04, 03:05:04,VALID,917.66,VALID,0,VALID,90.1164,VALID,0,VALID,18.6485,VALID,188,VALID,0.720703,
2010-07-04, 03:06:04,VALID,917.669,VALID,0,VALID,90.4213,VALID,0,VALID,18.6499,VALID,188,VALID,0.426562,
2010-07-04, 03:07:04,VALID,917.673,VALID,0,VALID,89.2092,VALID,0,VALID,18.6694,VALID,188,VALID,0.867969,
2010-07-04, 03:08:04,VALID,917.708,VALID,0,VALID,89.2321,VALID,0,VALID,18.6694,VALID,187,VALID,0.705469,
2010-07-04, 03:09:04,VALID,917.678,VALID,0,VALID,88.8814,VALID,0,VALID,18.6694,VALID,154,VALID,0.835156,
2010-07-04, 03:10:04,VALID,917.673,VALID,0,VALID,89.2626,VALID,0,VALID,18.6694,VALID,154,VALID,0.716016,
2010-07-04, 03:11:04,VALID,917.704,VALID,0,VALID,89.5751,VALID,0,VALID,18.6889,VALID,154,VALID,0.730078,
2010-07-04, 03:12:04,VALID,917.702,VALID,0,VALID,89.8877,VALID,0,VALID,18.6889,VALID,154,VALID,0.842969,
2010-07-04, 03:13:04,VALID,917.663,VALID,0,VALID,90.0097,VALID,0,VALID,18.7084,VALID,126,VALID,0.911328,
2010-07-04, 03:14:04,VALID,917.662,VALID,0,VALID,89.1177,VALID,0,VALID,18.6694,VALID,112,VALID,1.30195,
2010-07-04, 03:15:04,VALID,917.695,VALID,0,VALID,88.8052,VALID,0,VALID,18.7279,VALID,112,VALID,1.24961,
2010-07-04, 03:16:04,VALID,917.662,VALID,0,VALID,88.5917,VALID,0,VALID,18.8073,VALID,113,VALID,1.11406,
2010-07-04, 03:17:04,VALID,917.632,VALID,0,VALID,88.1724,VALID,0,VALID,18.8059,VALID,113,VALID,1.28086,
2010-07-04, 03:18:04,VALID,917.65,VALID,0,VALID,88.0047,VALID,0,VALID,18.8254,VALID,113,VALID,1.09336,
2010-07-04, 03:19:04,VALID,917.62,VALID,0,VALID,88.02,VALID,0,VALID,18.8644,VALID,113,VALID,1.11953,
2010-07-04, 03:20:04,VALID,917.657,VALID,0,VALID,88.6603,VALID,0,VALID,18.8449,VALID,113,VALID,1.04375,
2010-07-04, 03:21:04,VALID,917.66,VALID,0,VALID,89.2626,VALID,0,VALID,18.8254,VALID,113,VALID,0.469141,
2010-07-04, 03:22:04,VALID,917.656,VALID,0,VALID,89.8496,VALID,0,VALID,18.8073,VALID,113,VALID,0.674609,
2010-07-04, 03:23:04,VALID,917.688,VALID,0,VALID,90.3908,VALID,0,VALID,18.7279,VALID,114,VALID,0.765234,
2010-07-04, 03:24:04,VALID,917.697,VALID,0,VALID,90.8787,VALID,0,VALID,18.6694,VALID,126,VALID,0.585938,
2010-07-04, 03:25:04,VALID,917.681,VALID,0,VALID,91.1761,VALID,0,VALID,18.6304,VALID,137,VALID,0.855469,
2010-07-04, 03:26:04,VALID,917.654,VALID,0,VALID,91.3438,VALID,0,VALID,18.6109,VALID,133,VALID,0.967969,
2010-07-04, 03:27:04,VALID,917.659,VALID,0,VALID,91.5648,VALID,0,VALID,18.572,VALID,161,VALID,0.80625,
2010-07-04, 03:28:04,VALID,917.666,VALID,0,VALID,91.6335,VALID,0,VALID,18.5929,VALID,91,VALID,0.791797,
2010-07-04, 03:29:04,VALID,917.658,VALID,0,VALID,91.8012,VALID,0,VALID,18.572,VALID,143,VALID,0.872266,
2010-07-04, 03:30:04,VALID,917.617,VALID,0,VALID,91.9918,VALID,0,VALID,18.5525,VALID,143,VALID,0.732031,
2010-07-04, 03:31:04,VALID,917.591,VALID,0,VALID,92.1214,VALID,0,VALID,18.533,VALID,170,VALID,1.25898,
2010-07-04, 03:32:04,VALID,917.586,VALID,0,VALID,92.2128,VALID,0,VALID,18.5135,VALID,168,VALID,0.673047,
2010-07-04, 03:33:04,VALID,917.54,VALID,0,VALID,92.0909,VALID,0,VALID,18.533,VALID,155,VALID,0.688281,
2010-07-04, 03:34:04,VALID,917.516,VALID,0,VALID,91.7554,VALID,0,VALID,18.533,VALID,133,VALID,0.995703,
2010-07-04, 03:35:04,VALID,917.494,VALID,0,VALID,91.4048,VALID,0,VALID,18.5734,VALID,144,VALID,1.18047,
2010-07-04, 03:36:04,VALID,917.458,VALID,0,VALID,91.0541,VALID,0,VALID,18.572,VALID,136,VALID,0.793359,
2010-07-04, 03:37:04,VALID,917.454,VALID,0,VALID,90.7339,VALID,0,VALID,18.6304,VALID,138,VALID,1.10234,
2010-07-04, 03:38:04,VALID,917.441,VALID,0,VALID,90.1545,VALID,0,VALID,18.7084,VALID,144,VALID,1.97656,
2010-07-04, 03:39:04,VALID,917.388,VALID,0,VALID,89.8572,VALID,0,VALID,18.7669,VALID,135,VALID,1.54453,
2010-07-04, 03:40:04,VALID,917.399,VALID,0,VALID,89.5751,VALID,0,VALID,18.8658,VALID,128,VALID,1.1332,
2010-07-04, 03:41:04,VALID,917.375,VALID,0,VALID,89.3159,VALID,0,VALID,18.9034,VALID,138,VALID,1.83242,
2010-07-04, 03:42:04,VALID,917.381,VALID,0,VALID,88.9729,VALID,0,VALID,18.9633,VALID,142,VALID,1.56133,
2010-07-04, 03:43:04,VALID,917.349,VALID,0,VALID,88.607,VALID,0,VALID,18.9814,VALID,141,VALID,1.9,
2010-07-04, 03:44:04,VALID,917.33,VALID,0,VALID,88.8433,VALID,0,VALID,19.0203,VALID,165,VALID,1.21445,
2010-07-04, 03:45:04,VALID,917.291,VALID,0,VALID,89.133,VALID,0,VALID,18.9814,VALID,145,VALID,1.01914,